Location: *
(44.1392°N, 4.8079°E)
Time: 16:14:32
(UTC+00:00)

Lacrosse 5 rocket - Visible Passes

Search period start: 17 October 2021 00:00
Search period end: 27 October 2021 00:00
Orbit: 464 x 629 km, 57.0° (Epoch: 16 October)

Date Brightness Start Highest point End Pass type
(mag) Time Alt. Az. Time Alt. Az. Time Alt. Az.
17 Oct 2.3 03:56:02 33° S 03:57:21 45° SE 04:01:33 10° ENE visible
18 Oct 1.7 03:50:35 56° SSE 03:51:00 60° SE 03:55:18 10° NE visible
18 Oct 2.5 05:26:39 10° W 05:30:25 29° NNW 05:34:22 10° NE visible
19 Oct 1.6 03:45:01 70° E 03:45:01 70° E 03:49:02 10° NE visible
19 Oct 2.8 05:20:38 10° W 05:24:15 26° NNW 05:28:00 10° NNE visible
20 Oct 2.0 03:39:20 52° NE 03:39:20 52° NE 03:42:44 10° NE visible
20 Oct 3.0 05:14:57 11° WNW 05:18:05 23° NNW 05:21:39 10° NNE visible
21 Oct 2.6 03:33:33 37° NNE 03:33:33 37° NNE 03:36:24 10° NE visible
21 Oct 3.1 05:09:10 12° WNW 05:11:55 20° NNW 05:15:18 10° NNE visible
22 Oct 3.1 03:27:43 28° NNE 03:27:43 28° NNE 03:30:03 10° NE visible
22 Oct 3.3 05:03:19 13° NW 05:05:47 19° NNW 05:08:58 10° NNE visible
23 Oct 3.5 03:21:49 23° NNE 03:21:49 23° NNE 03:23:41 10° NE visible
23 Oct 3.4 04:57:25 13° NW 04:59:39 17° NNW 05:02:40 10° NNE visible
24 Oct 3.8 03:15:52 19° NNE 03:15:52 19° NNE 03:17:18 10° NE visible
24 Oct 3.5 04:51:28 13° NW 04:53:31 16° N 04:56:22 10° NNE visible
25 Oct 4.0 03:09:53 15° NNE 03:09:53 15° NNE 03:10:56 10° NE visible
25 Oct 3.5 04:45:29 12° NW 04:47:23 16° N 04:50:08 10° NNE visible
26 Oct 4.2 03:03:52 13° NNE 03:03:52 13° NNE 03:04:32 10° NNE visible
26 Oct 3.6 04:39:28 12° NNW 04:41:17 15° N 04:43:56 10° NE visible
